SND48 YGEL-YBPN

Flight info

Callsign SND48
Flight time 4h 17m
Altitude 33000
Route ELGAT DCT 27S121E DCT SKIPA/N0445F340 DCT SKIPA/N0438F350 Y69 UPRUN W408 AS J64 MA J184 TL W258 LINSU
Aircraft A319/M-SDE3FGHIRWY/LB1

Departure

Time 2026-04-18 23:41
Airport Geraldton Airport (YGEL)

Arrival

Time 2026-04-19 03:58
Airport Proserpine Whitsunday Coast Airport (YBPN)
Time Latitude Longitude Altitude Speed Heading
2026-04-18 23:17 -28.79529 114.70324 118 ft 0 kts 329°
2026-04-18 23:31 -28.79529 114.70325 118 ft 0 kts 329°
2026-04-18 23:32 -28.79551 114.70339 118 ft 3 kts 329°
2026-04-18 23:32 -28.79573 114.70346 118 ft 1 kts 10°
2026-04-18 23:32 -28.79574 114.70346 118 ft 0 kts 10°
2026-04-18 23:34 -28.79573 114.70346 118 ft 0 kts 10°
2026-04-18 23:34 -28.79568 114.70349 118 ft 1 kts 41°
2026-04-18 23:35 -28.79563 114.70363 118 ft 2 kts 81°
2026-04-18 23:35 -28.79568 114.70391 118 ft 4 kts 107°
2026-04-18 23:35 -28.79579 114.70435 118 ft 6 kts 108°
2026-04-18 23:35 -28.79596 114.70489 118 ft 8 kts 108°
2026-04-18 23:36 -28.79616 114.70557 118 ft 9 kts 108°
2026-04-18 23:36 -28.79629 114.70637 118 ft 10 kts 68°
2026-04-18 23:36 -28.79561 114.70674 119 ft 11 kts 17°
2026-04-18 23:36 -28.79480 114.70704 120 ft 12 kts 18°
2026-04-18 23:37 -28.79398 114.70735 121 ft 12 kts 18°
2026-04-18 23:37 -28.79312 114.70767 122 ft 13 kts 18°
2026-04-18 23:37 -28.79224 114.70800 123 ft 13 kts 18°
2026-04-18 23:37 -28.79134 114.70834 124 ft 13 kts 18°
2026-04-18 23:38 -28.79041 114.70869 125 ft 14 kts 18°
2026-04-18 23:38 -28.78946 114.70905 126 ft 14 kts 18°
2026-04-18 23:38 -28.78847 114.70932 127 ft 14 kts 359°
2026-04-18 23:38 -28.78772 114.70935 127 ft 7 kts 23°
2026-04-18 23:39 -28.78776 114.70967 127 ft 5 kts 175°
2026-04-18 23:39 -28.78792 114.70963 127 ft 0 kts 199°
2026-04-18 23:40 -28.78806 114.70957 127 ft 18 kts 199°
2026-04-18 23:40 -28.79155 114.70828 124 ft 86 kts 198°
2026-04-18 23:40 -28.79919 114.70538 115 ft 142 kts 198°
2026-04-18 23:40 -28.80977 114.70135 305 ft 169 kts 197°
2026-04-18 23:41 -28.82103 114.69730 850 ft 172 kts 194°
2026-04-18 23:41 -28.83236 114.69365 1533 ft 169 kts 192°
2026-04-18 23:41 -28.84398 114.69016 2065 ft 179 kts 184°
2026-04-18 23:41 -28.85690 114.69116 2374 ft 199 kts 156°
2026-04-18 23:42 -28.86801 114.70115 2749 ft 217 kts 119°
2026-04-18 23:42 -28.87123 114.71831 3198 ft 234 kts 79°
2026-04-18 23:42 -28.86345 114.73497 3719 ft 251 kts 43°
2026-04-18 23:42 -28.84888 114.74650 4333 ft 264 kts 32°
2026-04-18 23:43 -28.83345 114.75761 5314 ft 263 kts 34°
2026-04-18 23:43 -28.82006 114.77200 6183 ft 268 kts 53°
2026-04-18 23:43 -28.81298 114.79137 6989 ft 275 kts 77°
2026-04-18 23:43 -28.81039 114.81346 7649 ft 285 kts 81°
2026-04-18 23:44 -28.80820 114.83597 8360 ft 291 kts 80°
2026-04-18 23:44 -28.80558 114.85868 9120 ft 293 kts 79°
2026-04-18 23:44 -28.80261 114.88161 9809 ft 298 kts 78°
2026-04-18 23:44 -28.79935 114.90502 10421 ft 304 kts 77°
2026-04-18 23:45 -28.79581 114.92945 10757 ft 320 kts 77°
2026-04-18 23:45 -28.79197 114.95506 11076 ft 336 kts 77°
2026-04-18 23:45 -28.78798 114.98141 11620 ft 342 kts 77°
2026-04-18 23:45 -28.78398 115.00794 12235 ft 345 kts 77°
2026-04-18 23:46 -28.77985 115.03507 12819 ft 349 kts 77°
2026-04-18 23:46 -28.77567 115.06245 13373 ft 353 kts 77°
2026-04-18 23:46 -28.77147 115.09002 13897 ft 358 kts 77°
2026-04-18 23:46 -28.76720 115.11784 14424 ft 361 kts 78°
2026-04-18 23:47 -28.76284 115.14622 14983 ft 364 kts 78°
2026-04-18 23:47 -28.75847 115.17458 15552 ft 367 kts 78°
2026-04-18 23:47 -28.75405 115.20335 16114 ft 369 kts 78°
2026-04-18 23:47 -28.74961 115.23212 16615 ft 373 kts 78°
2026-04-18 23:48 -28.74517 115.26096 17137 ft 375 kts 78°
2026-04-18 23:48 -28.74059 115.29057 17630 ft 379 kts 78°
2026-04-18 23:48 -28.73603 115.31989 18160 ft 381 kts 78°
2026-04-18 23:48 -28.73143 115.34957 18676 ft 383 kts 78°
2026-04-18 23:49 -28.72679 115.37954 19162 ft 387 kts 78°
2026-04-18 23:49 -28.72207 115.40973 19653 ft 389 kts 78°
2026-04-18 23:49 -28.71736 115.43995 20134 ft 393 kts 78°
2026-04-18 23:49 -28.71255 115.47063 20602 ft 396 kts 78°
2026-04-18 23:50 -28.70773 115.50146 21093 ft 398 kts 78°
2026-04-18 23:50 -28.70285 115.53271 21573 ft 400 kts 78°
2026-04-18 23:50 -28.69797 115.56379 22035 ft 403 kts 78°
2026-04-18 23:50 -28.69303 115.59515 22468 ft 406 kts 78°
2026-04-18 23:51 -28.68805 115.62691 22899 ft 409 kts 78°
2026-04-18 23:51 -28.68304 115.65865 23359 ft 411 kts 77°
2026-04-18 23:51 -28.67797 115.69073 23768 ft 414 kts 77°
2026-04-18 23:51 -28.67287 115.72304 24145 ft 417 kts 77°
2026-04-18 23:52 -28.66773 115.75552 24537 ft 420 kts 77°
2026-04-18 23:52 -28.66250 115.78835 24907 ft 423 kts 77°
2026-04-18 23:52 -28.65725 115.82132 25294 ft 426 kts 77°
2026-04-18 23:52 -28.65196 115.85455 25646 ft 429 kts 77°
2026-04-18 23:53 -28.64663 115.88795 26009 ft 432 kts 77°
2026-04-18 23:53 -28.64130 115.92142 26329 ft 435 kts 77°
2026-04-18 23:53 -28.63581 115.95575 26655 ft 439 kts 77°
2026-04-18 23:53 -28.63036 115.98978 27022 ft 441 kts 77°
2026-04-18 23:54 -28.62487 116.02399 27365 ft 443 kts 77°
2026-04-18 23:54 -28.61934 116.05834 27691 ft 446 kts 77°
2026-04-18 23:54 -28.61377 116.09301 28005 ft 449 kts 77°
2026-04-18 23:54 -28.60809 116.12822 28315 ft 451 kts 77°
2026-04-18 23:55 -28.60245 116.16317 28621 ft 454 kts 77°
2026-04-18 23:55 -28.59675 116.19834 28886 ft 457 kts 77°
2026-04-18 23:55 -28.59090 116.23431 29194 ft 460 kts 77°
2026-04-18 23:55 -28.58514 116.26976 29452 ft 463 kts 77°
2026-04-18 23:56 -28.57927 116.30582 29737 ft 465 kts 78°
2026-04-18 23:56 -28.57343 116.34174 30116 ft 464 kts 77°
2026-04-18 23:56 -28.56755 116.37779 30373 ft 467 kts 77°
2026-04-18 23:56 -28.56161 116.41411 30593 ft 470 kts 77°
2026-04-18 23:57 -28.55560 116.45083 30793 ft 474 kts 77°
2026-04-18 23:57 -28.54958 116.48750 30997 ft 478 kts 77°
2026-04-18 23:57 -28.54344 116.52495 31256 ft 480 kts 77°
2026-04-18 23:57 -28.53736 116.56194 31535 ft 481 kts 77°
2026-04-18 23:58 -28.53120 116.59927 31819 ft 482 kts 77°
2026-04-18 23:58 -28.52498 116.63689 32113 ft 483 kts 77°
2026-04-18 23:58 -28.51888 116.67387 32331 ft 485 kts 76°
2026-04-18 23:58 -28.51262 116.71162 32537 ft 487 kts 77°
2026-04-18 23:59 -28.50633 116.74937 32750 ft 489 kts 76°
2026-04-18 23:59 -28.50002 116.78741 33040 ft 489 kts 77°
2026-04-18 23:59 -28.49364 116.82547 33260 ft 491 kts 77°
2026-04-18 23:59 -28.48735 116.86325 33450 ft 493 kts 76°
2026-04-19 00:00 -28.48096 116.90151 33685 ft 494 kts 77°
2026-04-19 00:00 -28.47450 116.94009 33908 ft 496 kts 76°
2026-04-19 00:00 -28.46811 116.97821 34106 ft 497 kts 77°
2026-04-19 00:00 -28.46160 117.01683 34302 ft 499 kts 77°
2026-04-19 00:01 -28.45409 117.05538 34468 ft 501 kts 72°
2026-04-19 00:01 -28.44452 117.09302 34650 ft 500 kts 68°
2026-04-19 00:01 -28.43265 117.12994 34848 ft 500 kts 64°
2026-04-19 00:01 -28.41973 117.16658 35023 ft 501 kts 63°
2026-04-19 00:02 -28.40652 117.20348 35141 ft 504 kts 64°
2026-04-19 00:02 -28.38023 117.27686 35142 ft 506 kts 64°
2026-04-19 00:03 -28.35396 117.35094 35148 ft 506 kts 64°
2026-04-19 00:03 -28.32780 117.42489 35139 ft 507 kts 64°
2026-04-19 00:04 -28.30154 117.49895 35141 ft 507 kts 64°
2026-04-19 00:04 -28.27527 117.57290 35160 ft 507 kts 64°
2026-04-19 00:05 -28.24896 117.64674 35145 ft 508 kts 64°
2026-04-19 00:05 -28.22241 117.72117 35144 ft 508 kts 64°
2026-04-19 00:06 -28.19592 117.79533 35153 ft 509 kts 64°
2026-04-19 00:06 -28.16951 117.86919 35143 ft 509 kts 64°
2026-04-19 00:07 -28.14280 117.94357 35147 ft 509 kts 64°
2026-04-19 00:07 -28.11621 118.01748 35142 ft 510 kts 64°
2026-04-19 00:08 -28.08963 118.09144 35130 ft 509 kts 64°
2026-04-19 00:08 -28.06290 118.16541 35133 ft 510 kts 63°
2026-04-19 00:09 -28.03597 118.23979 35133 ft 511 kts 64°
2026-04-19 00:09 -28.00925 118.31356 35132 ft 511 kts 63°
2026-04-19 00:10 -27.98229 118.38788 35129 ft 510 kts 64°
2026-04-19 00:10 -27.95527 118.46209 35134 ft 511 kts 63°
2026-04-19 00:11 -27.92830 118.53609 35141 ft 511 kts 64°
2026-04-19 00:11 -27.90122 118.61016 35139 ft 513 kts 64°
2026-04-19 00:12 -27.87407 118.68446 35147 ft 512 kts 64°
2026-04-19 00:12 -27.84685 118.75874 35143 ft 512 kts 63°
2026-04-19 00:13 -27.81961 118.83278 35143 ft 512 kts 63°
2026-04-19 00:13 -27.79236 118.90665 35144 ft 512 kts 63°
2026-04-19 00:14 -27.76507 118.98066 35148 ft 513 kts 63°
2026-04-19 00:14 -27.73769 119.05483 35149 ft 513 kts 63°
2026-04-19 00:15 -27.71042 119.12856 35149 ft 511 kts 63°
2026-04-19 00:15 -27.68288 119.20276 35152 ft 512 kts 64°
2026-04-19 00:16 -27.65547 119.27650 35137 ft 511 kts 63°
2026-04-19 00:16 -27.62794 119.35037 35156 ft 512 kts 64°
2026-04-19 00:17 -27.60037 119.42424 35153 ft 513 kts 64°
2026-04-19 00:17 -27.57286 119.49788 35152 ft 512 kts 64°
2026-04-19 00:18 -27.54520 119.57180 35157 ft 512 kts 64°
2026-04-19 00:18 -27.51755 119.64534 35157 ft 514 kts 64°
2026-04-19 00:19 -27.48964 119.71968 35157 ft 513 kts 63°
2026-04-19 00:19 -27.46200 119.79300 35150 ft 513 kts 63°
2026-04-19 00:20 -27.43409 119.86685 35164 ft 514 kts 63°
2026-04-19 00:20 -27.40617 119.94079 35164 ft 514 kts 63°
2026-04-19 00:21 -27.37807 120.01490 35161 ft 515 kts 64°
2026-04-19 00:21 -27.35009 120.08866 35167 ft 515 kts 64°
2026-04-19 00:22 -27.32194 120.16260 35159 ft 515 kts 63°
2026-04-19 00:22 -27.29394 120.23621 35165 ft 515 kts 63°
2026-04-19 00:23 -27.26581 120.30989 35170 ft 515 kts 63°
2026-04-19 00:23 -27.23755 120.38371 35160 ft 516 kts 63°
2026-04-19 00:24 -27.20939 120.45731 35158 ft 514 kts 64°
2026-04-19 00:24 -27.18099 120.53116 35164 ft 515 kts 64°
2026-04-19 00:25 -27.15277 120.60456 35164 ft 515 kts 63°
2026-04-19 00:25 -27.12432 120.67847 35158 ft 515 kts 63°
2026-04-19 00:26 -27.09595 120.75203 35164 ft 515 kts 63°
2026-04-19 00:26 -27.06760 120.82543 35155 ft 515 kts 63°
2026-04-19 00:27 -27.03899 120.89917 35156 ft 516 kts 64°
2026-04-19 00:27 -27.01436 120.97467 35164 ft 519 kts 73°
2026-04-19 00:28 -27.00084 121.05379 35158 ft 519 kts 85°
2026-04-19 00:28 -26.99853 121.13444 35162 ft 518 kts 92°
2026-04-19 00:29 -26.99931 121.21453 35164 ft 518 kts 92°
2026-04-19 00:29 -26.99980 121.29526 35166 ft 518 kts 92°
2026-04-19 00:30 -26.99987 121.37554 35169 ft 518 kts 92°
2026-04-19 00:30 -26.99974 121.45592 35175 ft 518 kts 91°
2026-04-19 00:31 -26.99955 121.53654 35169 ft 518 kts 91°
2026-04-19 00:31 -26.99933 121.61682 35175 ft 517 kts 92°
2026-04-19 00:32 -26.99912 121.69785 35171 ft 518 kts 91°
2026-04-19 00:32 -26.99883 121.77788 35177 ft 518 kts 92°
2026-04-19 00:33 -26.99848 121.85828 35179 ft 517 kts 92°
2026-04-19 00:33 -26.99810 121.93881 35187 ft 518 kts 92°
2026-04-19 00:34 -26.99744 122.05933 35187 ft 517 kts 92°
2026-04-19 00:34 -26.99699 122.14004 35176 ft 518 kts 91°
2026-04-19 00:35 -26.99643 122.22057 35186 ft 517 kts 91°
2026-04-19 00:35 -26.99582 122.30055 35186 ft 517 kts 92°
2026-04-19 00:36 -26.99518 122.38133 35180 ft 518 kts 91°
2026-04-19 00:36 -26.99449 122.46172 35179 ft 518 kts 92°
2026-04-19 00:37 -26.99379 122.54184 35178 ft 518 kts 92°
2026-04-19 00:37 -26.99304 122.62231 35179 ft 518 kts 91°
2026-04-19 00:38 -26.99219 122.70320 35174 ft 519 kts 91°
2026-04-19 00:38 -26.99132 122.78350 35176 ft 519 kts 91°
2026-04-19 00:39 -26.99041 122.86428 35178 ft 519 kts 91°
2026-04-19 00:39 -26.98944 122.94476 35176 ft 518 kts 91°
2026-04-19 00:40 -26.98841 123.02542 35173 ft 519 kts 91°
2026-04-19 00:40 -26.98738 123.10622 35168 ft 519 kts 91°
2026-04-19 00:41 -26.98629 123.18678 35167 ft 519 kts 91°
2026-04-19 00:41 -26.98516 123.26739 35172 ft 519 kts 91°
2026-04-19 00:42 -26.98397 123.34789 35179 ft 519 kts 91°
2026-04-19 00:42 -26.98273 123.42851 35186 ft 518 kts 91°
2026-04-19 00:43 -26.98146 123.50879 35173 ft 518 kts 91°
2026-04-19 00:43 -26.98015 123.58949 35176 ft 518 kts 91°
2026-04-19 00:44 -26.97877 123.66983 35172 ft 518 kts 90°
2026-04-19 00:44 -26.97735 123.75001 35178 ft 519 kts 91°
2026-04-19 00:45 -26.97590 123.83086 35182 ft 519 kts 90°
2026-04-19 00:45 -26.97438 123.91120 35183 ft 519 kts 91°
2026-04-19 00:46 -26.97285 123.99220 35183 ft 519 kts 91°
2026-04-19 00:46 -26.97127 124.07260 35185 ft 519 kts 90°
2026-04-19 00:47 -26.96960 124.15292 35180 ft 519 kts 90°
2026-04-19 00:47 -26.96793 124.23372 35177 ft 518 kts 90°
2026-04-19 00:48 -26.96620 124.31400 35176 ft 518 kts 90°
2026-04-19 00:48 -26.96440 124.39452 35177 ft 517 kts 90°
2026-04-19 00:49 -26.96259 124.47467 35175 ft 517 kts 91°
2026-04-19 00:49 -26.96072 124.55493 35173 ft 517 kts 91°
2026-04-19 00:50 -26.95881 124.63519 35172 ft 517 kts 90°
2026-04-19 00:50 -26.95688 124.71569 35171 ft 516 kts 90°
2026-04-19 00:51 -26.95487 124.79544 35168 ft 516 kts 90°
2026-04-19 00:51 -26.95281 124.87594 35170 ft 517 kts 90°
2026-04-19 00:52 -26.95073 124.95630 35174 ft 516 kts 90°
2026-04-19 00:52 -26.94860 125.03643 35176 ft 517 kts 90°
2026-04-19 00:53 -26.94640 125.11631 35178 ft 516 kts 90°
2026-04-19 00:53 -26.94417 125.19677 35177 ft 516 kts 90°
2026-04-19 00:54 -26.94189 125.27688 35175 ft 516 kts 90°
2026-04-19 00:54 -26.93959 125.35685 35176 ft 516 kts 90°
2026-04-19 00:55 -26.93723 125.43694 35175 ft 515 kts 90°
2026-04-19 00:55 -26.93483 125.51669 35177 ft 516 kts 90°
2026-04-19 00:56 -26.93236 125.59719 35174 ft 516 kts 90°
2026-04-19 00:56 -26.92989 125.67693 35171 ft 516 kts 89°
2026-04-19 00:57 -26.92735 125.75714 35177 ft 516 kts 89°
2026-04-19 00:57 -26.92476 125.83732 35178 ft 516 kts 89°
2026-04-19 00:58 -26.92213 125.91710 35179 ft 515 kts 89°
2026-04-19 00:58 -26.91945 125.99724 35180 ft 516 kts 89°
2026-04-19 00:59 -26.91672 126.07716 35179 ft 515 kts 89°
2026-04-19 00:59 -26.91400 126.15698 35179 ft 516 kts 89°
2026-04-19 01:00 -26.91116 126.23725 35179 ft 516 kts 89°
2026-04-19 01:00 -26.90637 126.31686 35181 ft 517 kts 83°
2026-04-19 01:01 -26.89135 126.39542 35182 ft 516 kts 71°
2026-04-19 01:01 -26.86541 126.46978 35179 ft 512 kts 62°
2026-04-19 01:02 -26.83483 126.54136 35176 ft 512 kts 61°
2026-04-19 01:02 -26.80419 126.61322 35178 ft 513 kts 62°
2026-04-19 01:03 -26.77396 126.68500 35175 ft 513 kts 62°
2026-04-19 01:03 -26.74365 126.75715 35180 ft 513 kts 61°
2026-04-19 01:04 -26.71332 126.82935 35179 ft 513 kts 61°
2026-04-19 01:04 -26.68313 126.90097 35179 ft 512 kts 61°
2026-04-19 01:05 -26.65280 126.97286 35179 ft 513 kts 62°
2026-04-19 01:05 -26.62231 127.04504 35182 ft 513 kts 62°
2026-04-19 01:06 -26.59190 127.11686 35180 ft 513 kts 61°
2026-04-19 01:06 -26.56162 127.18819 35182 ft 513 kts 61°
2026-04-19 01:07 -26.53107 127.26013 35181 ft 513 kts 61°
2026-04-19 01:07 -26.50046 127.33208 35183 ft 513 kts 61°
2026-04-19 01:08 -26.46999 127.40355 35187 ft 513 kts 61°
2026-04-19 01:08 -26.43931 127.47537 35193 ft 513 kts 61°
2026-04-19 01:09 -26.40862 127.54713 35197 ft 513 kts 61°
2026-04-19 01:09 -26.37803 127.61854 35204 ft 513 kts 61°
2026-04-19 01:10 -26.34726 127.69027 35207 ft 513 kts 60°
2026-04-19 01:10 -26.31645 127.76190 35209 ft 513 kts 60°
2026-04-19 01:11 -26.28563 127.83350 35209 ft 513 kts 60°
2026-04-19 01:11 -26.25489 127.90475 35212 ft 514 kts 60°
2026-04-19 01:12 -26.22404 127.97614 35208 ft 514 kts 60°
2026-04-19 01:12 -26.19297 128.04794 35208 ft 514 kts 60°
2026-04-19 01:13 -26.16207 128.11926 35211 ft 514 kts 60°
2026-04-19 01:13 -26.13109 128.19058 35213 ft 514 kts 60°
2026-04-19 01:14 -26.10009 128.26190 35215 ft 514 kts 60°
2026-04-19 01:14 -26.06895 128.33339 35214 ft 515 kts 60°
2026-04-19 01:15 -26.03777 128.40488 35212 ft 515 kts 60°
2026-04-19 01:15 -26.00634 128.47675 35210 ft 515 kts 60°
2026-04-19 01:16 -25.97507 128.54805 35211 ft 515 kts 59°
2026-04-19 01:16 -25.94390 128.61906 35209 ft 515 kts 59°
2026-04-19 01:17 -25.91250 128.69049 35206 ft 515 kts 59°
2026-04-19 01:17 -25.88110 128.76178 35214 ft 515 kts 59°
2026-04-19 01:18 -25.84967 128.83307 35226 ft 514 kts 59°
2026-04-19 01:18 -25.81837 128.90390 35227 ft 515 kts 59°
2026-04-19 01:19 -25.78690 128.97510 35244 ft 514 kts 59°
2026-04-19 01:19 -25.75538 129.04620 35251 ft 514 kts 59°
2026-04-19 01:20 -25.72398 129.11702 35261 ft 514 kts 59°
2026-04-19 01:20 -25.69229 129.18828 35266 ft 514 kts 59°
2026-04-19 01:21 -25.66073 129.25914 35271 ft 514 kts 59°
2026-04-19 01:21 -25.62921 129.32987 35266 ft 514 kts 59°
2026-04-19 01:22 -25.59764 129.40048 35266 ft 514 kts 59°
2026-04-19 01:22 -25.56582 129.47170 35261 ft 514 kts 59°
2026-04-19 01:23 -25.53415 129.54239 35260 ft 514 kts 59°
2026-04-19 01:23 -25.50246 129.61305 35258 ft 514 kts 59°
2026-04-19 01:24 -25.47241 129.68440 35248 ft 517 kts 64°
2026-04-19 01:24 -25.45029 129.76038 35249 ft 521 kts 73°
2026-04-19 01:25 -25.43316 129.83821 35249 ft 521 kts 74°
2026-04-19 01:25 -25.41614 129.91556 35254 ft 521 kts 73°
2026-04-19 01:26 -25.39873 129.99316 35257 ft 520 kts 73°
2026-04-19 01:26 -25.38113 130.07069 35253 ft 520 kts 73°
2026-04-19 01:27 -25.36352 130.14806 35245 ft 521 kts 73°
2026-04-19 01:27 -25.34596 130.22501 35236 ft 521 kts 73°
2026-04-19 01:28 -25.32824 130.30252 35225 ft 521 kts 73°
2026-04-19 01:28 -25.31049 130.37991 35219 ft 521 kts 73°
2026-04-19 01:29 -25.29270 130.45737 35227 ft 520 kts 73°
2026-04-19 01:29 -25.27489 130.53467 35226 ft 520 kts 73°
2026-04-19 01:30 -25.25701 130.61191 35219 ft 520 kts 73°
2026-04-19 01:30 -25.23919 130.68904 35213 ft 520 kts 72°
2026-04-19 01:31 -25.22133 130.76588 35215 ft 520 kts 73°
2026-04-19 01:31 -25.20333 130.84320 35222 ft 520 kts 73°
2026-04-19 01:32 -25.18544 130.91998 35215 ft 520 kts 72°
2026-04-19 01:32 -25.16514 130.99608 35218 ft 516 kts 65°
2026-04-19 01:33 -25.13873 131.06938 35212 ft 514 kts 63°
2026-04-19 01:33 -25.11171 131.14204 35203 ft 515 kts 63°
2026-04-19 01:34 -25.08473 131.21523 35194 ft 515 kts 64°
2026-04-19 01:34 -25.05801 131.28816 35195 ft 515 kts 64°
2026-04-19 01:35 -25.03115 131.36128 35189 ft 515 kts 64°
2026-04-19 01:35 -25.00449 131.43393 35187 ft 515 kts 63°
2026-04-19 01:36 -24.97756 131.50705 35185 ft 514 kts 63°
2026-04-19 01:36 -24.95077 131.57958 35187 ft 514 kts 64°
2026-04-19 01:37 -24.92392 131.65228 35191 ft 514 kts 63°
2026-04-19 01:37 -24.89704 131.72498 35193 ft 513 kts 63°
2026-04-19 01:38 -24.87011 131.79748 35192 ft 513 kts 63°
2026-04-19 01:38 -24.84316 131.87009 35194 ft 512 kts 63°
2026-04-19 01:39 -24.81616 131.94266 35199 ft 512 kts 63°
2026-04-19 01:39 -24.78926 132.01480 35200 ft 511 kts 63°
2026-04-19 01:40 -24.76235 132.08688 35200 ft 511 kts 63°
2026-04-19 01:40 -24.73537 132.15903 35200 ft 511 kts 63°
2026-04-19 01:41 -24.70835 132.23116 35205 ft 511 kts 63°
2026-04-19 01:41 -24.68126 132.30335 35207 ft 511 kts 63°
2026-04-19 01:42 -24.65425 132.37524 35201 ft 511 kts 63°
2026-04-19 01:43 -24.61297 132.48254 35197 ft 508 kts 59°
2026-04-19 01:43 -24.57866 132.54933 35198 ft 501 kts 52°
2026-04-19 01:44 -24.54086 132.61348 35196 ft 501 kts 51°
2026-04-19 01:44 -24.50297 132.67763 35190 ft 501 kts 51°
2026-04-19 01:45 -24.46548 132.74159 35194 ft 500 kts 51°
2026-04-19 01:45 -24.42782 132.80583 35194 ft 500 kts 51°
2026-04-19 01:46 -24.39038 132.86971 35195 ft 500 kts 51°
2026-04-19 01:46 -24.35280 132.93379 35197 ft 500 kts 51°
2026-04-19 01:47 -24.31548 132.99728 35197 ft 499 kts 51°
2026-04-19 01:47 -24.27782 133.06123 35199 ft 499 kts 51°
2026-04-19 01:48 -24.24025 133.12506 35203 ft 499 kts 52°
2026-04-19 01:48 -24.20282 133.18860 35206 ft 497 kts 51°
2026-04-19 01:49 -24.16524 133.25218 35205 ft 497 kts 51°
2026-04-19 01:49 -24.12781 133.31547 35202 ft 497 kts 51°
2026-04-19 01:50 -24.09032 133.37872 35203 ft 496 kts 51°
2026-04-19 01:50 -24.05277 133.44196 35206 ft 496 kts 52°
2026-04-19 01:51 -24.01522 133.50517 35208 ft 495 kts 52°
2026-04-19 01:51 -23.97793 133.56795 35212 ft 495 kts 51°
2026-04-19 01:52 -23.94036 133.63110 35212 ft 494 kts 51°
2026-04-19 01:52 -23.90290 133.69386 35213 ft 494 kts 51°
2026-04-19 01:53 -23.86558 133.75641 35215 ft 493 kts 51°
2026-04-19 01:53 -23.82803 133.81924 35217 ft 493 kts 51°
2026-04-19 01:54 -23.79109 133.88155 35219 ft 493 kts 53°
2026-04-19 01:54 -23.75654 133.94612 35219 ft 494 kts 55°
2026-04-19 01:55 -23.72240 134.01100 35217 ft 494 kts 55°
2026-04-19 01:55 -23.68801 134.07608 35215 ft 494 kts 55°
2026-04-19 01:56 -23.65390 134.14052 35213 ft 493 kts 55°
2026-04-19 01:56 -23.61962 134.20515 35210 ft 492 kts 55°
2026-04-19 01:57 -23.58524 134.26982 35208 ft 492 kts 55°
2026-04-19 01:57 -23.55108 134.33406 35209 ft 491 kts 54°
2026-04-19 01:58 -23.51685 134.39827 35208 ft 492 kts 55°
2026-04-19 01:58 -23.48268 134.46234 35204 ft 491 kts 54°
2026-04-19 01:59 -23.44843 134.52643 35206 ft 491 kts 55°
2026-04-19 01:59 -23.41433 134.59023 35208 ft 490 kts 55°
2026-04-19 02:00 -23.38012 134.65410 35206 ft 490 kts 54°
2026-04-19 02:00 -23.34573 134.71825 35201 ft 489 kts 54°
2026-04-19 02:01 -23.31173 134.78160 35202 ft 487 kts 54°
2026-04-19 02:01 -23.27742 134.84543 35199 ft 487 kts 54°
2026-04-19 02:02 -23.24326 134.90889 35201 ft 487 kts 54°
2026-04-19 02:02 -23.20918 134.97215 35204 ft 487 kts 54°
2026-04-19 02:03 -23.17498 135.03549 35205 ft 487 kts 54°
2026-04-19 02:03 -23.14094 135.09851 35204 ft 485 kts 54°
2026-04-19 02:04 -23.10683 135.16161 35201 ft 485 kts 54°
2026-04-19 02:04 -23.07263 135.22476 35195 ft 485 kts 54°
2026-04-19 02:05 -23.03840 135.28789 35188 ft 485 kts 54°
2026-04-19 02:05 -23.00432 135.35063 35176 ft 484 kts 54°
2026-04-19 02:06 -22.97017 135.41347 35166 ft 485 kts 54°
2026-04-19 02:06 -22.93606 135.47615 35157 ft 485 kts 55°
2026-04-19 02:07 -22.90166 135.53931 35152 ft 485 kts 54°
2026-04-19 02:07 -22.86746 135.60200 35146 ft 485 kts 54°
2026-04-19 02:08 -22.83314 135.66487 35138 ft 484 kts 54°
2026-04-19 02:08 -22.79895 135.72739 35138 ft 485 kts 54°
2026-04-19 02:09 -22.76456 135.79021 35135 ft 485 kts 54°
2026-04-19 02:09 -22.73039 135.85251 35131 ft 484 kts 54°
2026-04-19 02:10 -22.69583 135.91531 35129 ft 484 kts 54°
2026-04-19 02:10 -22.66152 135.97765 35128 ft 484 kts 54°
2026-04-19 02:11 -22.62718 136.03996 35129 ft 484 kts 54°
2026-04-19 02:11 -22.59262 136.10268 35126 ft 484 kts 54°
2026-04-19 02:12 -22.55824 136.16495 35126 ft 484 kts 54°
2026-04-19 02:12 -22.52380 136.22722 35120 ft 483 kts 54°
2026-04-19 02:13 -22.48933 136.28950 35118 ft 483 kts 54°
2026-04-19 02:13 -22.45483 136.35176 35117 ft 484 kts 54°
2026-04-19 02:14 -22.42035 136.41394 35113 ft 483 kts 55°
2026-04-19 02:14 -22.38580 136.47618 35113 ft 483 kts 55°
2026-04-19 02:15 -22.35136 136.53815 35109 ft 483 kts 55°
2026-04-19 02:15 -22.31676 136.60034 35110 ft 482 kts 55°
2026-04-19 02:16 -22.28235 136.66202 35105 ft 482 kts 54°
2026-04-19 02:16 -22.24769 136.72406 35104 ft 482 kts 54°
2026-04-19 02:17 -22.21315 136.78580 35105 ft 482 kts 54°
2026-04-19 02:17 -22.17859 136.84758 35107 ft 482 kts 54°
2026-04-19 02:18 -22.14414 136.90912 35105 ft 481 kts 54°
2026-04-19 02:18 -22.10959 136.97069 35104 ft 481 kts 55°
2026-04-19 02:19 -22.07487 137.03258 35101 ft 481 kts 54°
2026-04-19 02:19 -22.04034 137.09402 35100 ft 481 kts 54°
2026-04-19 02:20 -21.98848 137.18617 35100 ft 481 kts 55°
2026-04-19 02:20 -21.95377 137.24777 35098 ft 481 kts 54°
2026-04-19 02:21 -21.91913 137.30916 35093 ft 481 kts 54°
2026-04-19 02:21 -21.88436 137.37070 35089 ft 480 kts 55°
2026-04-19 02:22 -21.84971 137.43199 35089 ft 480 kts 55°
2026-04-19 02:22 -21.81506 137.49318 35082 ft 480 kts 55°
2026-04-19 02:23 -21.78056 137.55408 35080 ft 479 kts 55°
2026-04-19 02:23 -21.74584 137.61526 35077 ft 479 kts 55°
2026-04-19 02:24 -21.71126 137.67615 35073 ft 479 kts 54°
2026-04-19 02:24 -21.67653 137.73723 35073 ft 479 kts 54°
2026-04-19 02:25 -21.64173 137.79835 35068 ft 478 kts 54°
2026-04-19 02:25 -21.60713 137.85910 35058 ft 478 kts 55°
2026-04-19 02:26 -21.57244 137.91986 35056 ft 478 kts 54°
2026-04-19 02:26 -21.53757 137.98071 35057 ft 478 kts 54°
2026-04-19 02:27 -21.50297 138.04108 35052 ft 477 kts 54°
2026-04-19 02:27 -21.46817 138.10176 35051 ft 477 kts 54°
2026-04-19 02:28 -21.43353 138.16211 35049 ft 477 kts 54°
2026-04-19 02:28 -21.39868 138.22276 35045 ft 477 kts 55°
2026-04-19 02:29 -21.36406 138.28294 35042 ft 477 kts 55°
2026-04-19 02:29 -21.32939 138.34317 35043 ft 477 kts 55°
2026-04-19 02:30 -21.29445 138.40376 35042 ft 476 kts 55°
2026-04-19 02:30 -21.25977 138.46388 35041 ft 476 kts 54°
2026-04-19 02:31 -21.22483 138.52434 35043 ft 476 kts 54°
2026-04-19 02:31 -21.19021 138.58420 35041 ft 476 kts 55°
2026-04-19 02:32 -21.15529 138.64453 35043 ft 476 kts 55°
2026-04-19 02:32 -21.12045 138.70464 35041 ft 475 kts 54°
2026-04-19 02:33 -21.08559 138.76471 35046 ft 475 kts 54°
2026-04-19 02:33 -21.05095 138.82436 35042 ft 474 kts 54°
2026-04-19 02:34 -21.01625 138.88403 35039 ft 474 kts 54°
2026-04-19 02:34 -20.98137 138.94395 35044 ft 474 kts 54°
2026-04-19 02:35 -20.94648 139.00382 35045 ft 473 kts 54°
2026-04-19 02:35 -20.91186 139.06320 35045 ft 473 kts 54°
2026-04-19 02:36 -20.87697 139.12294 35046 ft 473 kts 54°
2026-04-19 02:36 -20.84224 139.18237 35044 ft 473 kts 54°
2026-04-19 02:37 -20.80754 139.24171 35043 ft 473 kts 54°
2026-04-19 02:37 -20.77263 139.30133 35048 ft 473 kts 54°
2026-04-19 02:38 -20.73773 139.36085 35050 ft 472 kts 54°
2026-04-19 02:38 -20.70339 139.42003 35055 ft 473 kts 57°
2026-04-19 02:39 -20.67415 139.48328 35059 ft 477 kts 66°
2026-04-19 02:39 -20.65348 139.55058 35059 ft 478 kts 75°
2026-04-19 02:40 -20.64060 139.61972 35052 ft 479 kts 79°
2026-04-19 02:40 -20.62892 139.68970 35042 ft 478 kts 78°
2026-04-19 02:41 -20.61708 139.75905 35034 ft 478 kts 78°
2026-04-19 02:41 -20.60497 139.82883 35033 ft 477 kts 78°
2026-04-19 02:42 -20.59292 139.89804 35030 ft 478 kts 78°
2026-04-19 02:42 -20.58074 139.96776 35031 ft 478 kts 78°
2026-04-19 02:43 -20.56858 140.03708 35032 ft 477 kts 78°
2026-04-19 02:43 -20.55636 140.10671 35027 ft 477 kts 78°
2026-04-19 02:44 -20.54417 140.17578 35025 ft 477 kts 78°
2026-04-19 02:44 -20.53192 140.24522 35019 ft 478 kts 78°
2026-04-19 02:45 -20.51966 140.31450 35020 ft 478 kts 78°
2026-04-19 02:45 -20.50731 140.38413 35015 ft 478 kts 78°
2026-04-19 02:46 -20.49493 140.45373 35016 ft 478 kts 78°
2026-04-19 02:46 -20.48257 140.52318 35013 ft 478 kts 78°
2026-04-19 02:47 -20.47015 140.59253 35011 ft 477 kts 78°
2026-04-19 02:47 -20.45776 140.66183 35003 ft 477 kts 78°
2026-04-19 02:48 -20.44531 140.73108 35009 ft 477 kts 78°
2026-04-19 02:48 -20.43285 140.80031 35005 ft 477 kts 78°
2026-04-19 02:49 -20.42037 140.86954 35001 ft 477 kts 78°
2026-04-19 02:49 -20.40787 140.93878 35003 ft 477 kts 78°
2026-04-19 02:50 -20.39532 141.00801 35003 ft 477 kts 78°
2026-04-19 02:51 -20.37649 141.11162 34994 ft 478 kts 78°
2026-04-19 02:51 -20.36385 141.18092 34993 ft 478 kts 78°
2026-04-19 02:52 -20.35121 141.25003 34992 ft 478 kts 78°
2026-04-19 02:52 -20.33842 141.31943 34990 ft 478 kts 78°
2026-04-19 02:53 -20.32569 141.38844 34991 ft 477 kts 78°
2026-04-19 02:53 -20.31287 141.45772 34988 ft 477 kts 78°
2026-04-19 02:54 -20.30008 141.52673 34985 ft 477 kts 78°
2026-04-19 02:54 -20.28718 141.59608 34985 ft 476 kts 78°
2026-04-19 02:55 -20.27433 141.66518 34981 ft 476 kts 77°
2026-04-19 02:55 -20.26147 141.73404 34989 ft 476 kts 77°
2026-04-19 02:56 -20.24861 141.80276 34992 ft 477 kts 77°
2026-04-19 02:56 -20.23565 141.87198 34990 ft 477 kts 77°
2026-04-19 02:57 -20.22263 141.94119 34988 ft 477 kts 77°
2026-04-19 02:57 -20.20964 142.01018 34984 ft 477 kts 77°
2026-04-19 02:58 -20.19664 142.07910 34984 ft 476 kts 77°
2026-04-19 02:58 -20.18361 142.14786 34985 ft 477 kts 77°
2026-04-19 02:59 -20.17057 142.21666 34982 ft 476 kts 78°
2026-04-19 02:59 -20.15748 142.28564 34985 ft 476 kts 77°
2026-04-19 03:00 -20.14432 142.35467 34985 ft 477 kts 77°
2026-04-19 03:00 -20.13122 142.42339 34986 ft 476 kts 77°
2026-04-19 03:01 -20.11803 142.49243 34986 ft 475 kts 77°
2026-04-19 03:01 -20.10495 142.56061 34986 ft 475 kts 77°
2026-04-19 03:02 -20.09174 142.62933 34988 ft 474 kts 77°
2026-04-19 03:02 -20.07855 142.69781 34988 ft 475 kts 77°
2026-04-19 03:03 -20.06526 142.76668 34991 ft 475 kts 77°
2026-04-19 03:03 -20.05199 142.83533 34995 ft 476 kts 77°
2026-04-19 03:04 -20.03868 142.90410 34992 ft 475 kts 77°
2026-04-19 03:04 -20.02538 142.97258 35000 ft 475 kts 77°
2026-04-19 03:05 -20.01202 143.04123 35003 ft 475 kts 77°
2026-04-19 03:05 -19.99873 143.10942 35007 ft 475 kts 77°
2026-04-19 03:06 -19.98530 143.17818 35013 ft 475 kts 77°
2026-04-19 03:06 -19.97187 143.24664 35021 ft 475 kts 77°
2026-04-19 03:07 -19.95840 143.31517 35023 ft 475 kts 77°
2026-04-19 03:07 -19.94495 143.38353 35029 ft 475 kts 77°
2026-04-19 03:08 -19.93141 143.45224 35028 ft 475 kts 77°
2026-04-19 03:08 -19.91787 143.52060 35036 ft 475 kts 78°
2026-04-19 03:09 -19.90425 143.58937 35044 ft 474 kts 78°
2026-04-19 03:09 -19.89078 143.65739 35051 ft 474 kts 77°
2026-04-19 03:10 -19.87715 143.72598 35060 ft 474 kts 77°
2026-04-19 03:10 -19.86358 143.79404 35066 ft 473 kts 77°
2026-04-19 03:11 -19.84998 143.86211 35068 ft 473 kts 77°
2026-04-19 03:11 -19.83632 143.93031 35078 ft 473 kts 77°
2026-04-19 03:12 -19.82266 143.99843 35087 ft 474 kts 77°
2026-04-19 03:12 -19.80893 144.06680 35094 ft 474 kts 77°
2026-04-19 03:13 -19.79523 144.13490 35098 ft 474 kts 77°
2026-04-19 03:13 -19.78143 144.20328 35104 ft 474 kts 77°
2026-04-19 03:14 -19.76762 144.27162 35105 ft 474 kts 77°
2026-04-19 03:14 -19.75374 144.34006 35105 ft 474 kts 77°
2026-04-19 03:15 -19.73990 144.40825 35101 ft 474 kts 77°
2026-04-19 03:15 -19.72607 144.47624 35098 ft 474 kts 78°
2026-04-19 03:16 -19.71217 144.54440 35091 ft 473 kts 78°
2026-04-19 03:16 -19.69833 144.61226 35091 ft 473 kts 77°
2026-04-19 03:17 -19.68433 144.68066 35083 ft 473 kts 77°
2026-04-19 03:17 -19.67030 144.74911 35201 ft 480 kts 77°
2026-04-19 03:17 -19.66325 144.78337 35419 ft 483 kts 77°
2026-04-19 03:18 -19.65602 144.81851 35747 ft 484 kts 77°
2026-04-19 03:18 -19.64893 144.85300 36108 ft 483 kts 77°
2026-04-19 03:18 -19.64179 144.88762 36459 ft 483 kts 77°
2026-04-19 03:18 -19.63459 144.92255 36797 ft 483 kts 77°
2026-04-19 03:19 -19.62741 144.95734 37052 ft 483 kts 77°
2026-04-19 03:19 -19.61303 145.02689 37068 ft 484 kts 77°
2026-04-19 03:20 -19.59872 145.09604 37066 ft 484 kts 77°
2026-04-19 03:20 -19.58423 145.16582 37059 ft 484 kts 77°
2026-04-19 03:21 -19.56979 145.23520 37055 ft 484 kts 77°
2026-04-19 03:21 -19.55521 145.30472 37054 ft 484 kts 77°
2026-04-19 03:22 -19.54065 145.37413 37053 ft 483 kts 77°
2026-04-19 03:22 -19.52613 145.44322 37050 ft 484 kts 78°
2026-04-19 03:23 -19.51153 145.51254 37048 ft 483 kts 78°
2026-04-19 03:23 -19.49689 145.58185 37044 ft 484 kts 78°
2026-04-19 03:24 -19.48218 145.65150 37041 ft 484 kts 77°
2026-04-19 03:24 -19.46756 145.72058 37036 ft 484 kts 77°
2026-04-19 03:25 -19.45279 145.79010 37032 ft 485 kts 77°
2026-04-19 03:25 -19.43798 145.85969 37033 ft 485 kts 77°
2026-04-19 03:26 -19.42322 145.92906 37039 ft 485 kts 78°
2026-04-19 03:26 -19.40837 145.99866 37042 ft 484 kts 77°
2026-04-19 03:27 -19.39350 146.06815 37046 ft 484 kts 77°
2026-04-19 03:27 -19.37871 146.13715 37052 ft 484 kts 77°
2026-04-19 03:28 -19.36370 146.20689 37050 ft 484 kts 78°
2026-04-19 03:28 -19.34881 146.27591 37051 ft 484 kts 77°
2026-04-19 03:29 -19.33385 146.34520 37044 ft 483 kts 78°
2026-04-19 03:29 -19.31891 146.41435 37036 ft 484 kts 78°
2026-04-19 03:30 -19.30394 146.48341 37023 ft 483 kts 78°
2026-04-19 03:30 -19.28892 146.55255 37009 ft 483 kts 78°
2026-04-19 03:31 -19.27381 146.62198 36866 ft 485 kts 78°
2026-04-19 03:31 -19.26756 146.65686 36564 ft 482 kts 85°
2026-04-19 03:31 -19.26697 146.69194 36268 ft 475 kts 97°
2026-04-19 03:31 -19.27233 146.72574 35979 ft 467 kts 108°
2026-04-19 03:32 -19.28320 146.75764 35688 ft 459 kts 120°
2026-04-19 03:32 -19.29885 146.78647 35402 ft 452 kts 130°
2026-04-19 03:32 -19.31885 146.81194 35112 ft 445 kts 140°
2026-04-19 03:32 -19.34195 146.83296 34825 ft 438 kts 149°
2026-04-19 03:33 -19.36680 146.85164 34541 ft 438 kts 151°
2026-04-19 03:33 -19.39193 146.86998 34255 ft 440 kts 151°
2026-04-19 03:33 -19.41738 146.88863 33969 ft 441 kts 150°
2026-04-19 03:33 -19.44237 146.90710 33686 ft 443 kts 150°
2026-04-19 03:34 -19.46768 146.92600 33400 ft 444 kts 150°
2026-04-19 03:34 -19.49302 146.94499 33116 ft 445 kts 150°
2026-04-19 03:34 -19.51836 146.96403 32834 ft 446 kts 150°
2026-04-19 03:34 -19.54378 146.98317 32555 ft 448 kts 150°
2026-04-19 03:35 -19.56905 147.00221 32177 ft 449 kts 150°
2026-04-19 03:35 -19.59457 147.02145 31654 ft 450 kts 149°
2026-04-19 03:35 -19.62001 147.04063 31032 ft 451 kts 149°
2026-04-19 03:35 -19.64563 147.05998 30411 ft 451 kts 149°
2026-04-19 03:36 -19.67110 147.07922 29959 ft 446 kts 149°
2026-04-19 03:36 -19.69624 147.09825 29511 ft 442 kts 149°
2026-04-19 03:36 -19.72118 147.11713 29058 ft 438 kts 149°
2026-04-19 03:36 -19.74557 147.13557 28610 ft 434 kts 149°
2026-04-19 03:37 -19.77034 147.15431 28156 ft 430 kts 149°
2026-04-19 03:37 -19.79432 147.17246 27700 ft 427 kts 149°
2026-04-19 03:37 -19.81857 147.19080 27219 ft 425 kts 149°
2026-04-19 03:37 -19.84257 147.20905 26759 ft 422 kts 149°
2026-04-19 03:38 -19.86629 147.22716 26308 ft 419 kts 149°
2026-04-19 03:38 -19.88991 147.24521 25851 ft 417 kts 149°
2026-04-19 03:38 -19.91335 147.26315 25405 ft 414 kts 149°
2026-04-19 03:38 -19.93663 147.28098 24945 ft 412 kts 149°
2026-04-19 03:39 -19.95987 147.29875 24493 ft 410 kts 149°
2026-04-19 03:39 -19.98303 147.31650 24047 ft 408 kts 149°
2026-04-19 03:39 -20.00580 147.33395 23611 ft 406 kts 149°
2026-04-19 03:39 -20.02867 147.35149 23171 ft 405 kts 148°
2026-04-19 03:40 -20.05146 147.36896 22744 ft 403 kts 149°
2026-04-19 03:40 -20.07417 147.38638 22312 ft 401 kts 148°
2026-04-19 03:40 -20.09664 147.40361 21892 ft 400 kts 148°
2026-04-19 03:40 -20.11934 147.42104 21468 ft 398 kts 148°
2026-04-19 03:41 -20.14169 147.43819 21043 ft 397 kts 148°
2026-04-19 03:41 -20.16392 147.45529 20633 ft 395 kts 148°
2026-04-19 03:41 -20.18624 147.47246 20213 ft 394 kts 148°
2026-04-19 03:41 -20.20831 147.48943 19783 ft 392 kts 148°
2026-04-19 03:42 -20.23045 147.50645 19361 ft 391 kts 148°
2026-04-19 03:42 -20.25247 147.52341 18939 ft 389 kts 148°
2026-04-19 03:42 -20.27447 147.54033 18514 ft 387 kts 148°
2026-04-19 03:42 -20.29601 147.55692 18077 ft 386 kts 148°
2026-04-19 03:43 -20.31776 147.57369 17652 ft 385 kts 148°
2026-04-19 03:43 -20.33954 147.59045 17210 ft 383 kts 148°
2026-04-19 03:43 -20.36111 147.60707 16763 ft 382 kts 148°
2026-04-19 03:43 -20.38262 147.62363 16305 ft 381 kts 148°
2026-04-19 03:44 -20.40376 147.63995 15848 ft 380 kts 148°
2026-04-19 03:44 -20.42535 147.65662 15380 ft 378 kts 147°
2026-04-19 03:44 -20.44644 147.67290 14922 ft 376 kts 147°
2026-04-19 03:44 -20.46762 147.68927 14461 ft 375 kts 147°
2026-04-19 03:45 -20.48884 147.70566 14001 ft 372 kts 147°
2026-04-19 03:45 -20.50971 147.72182 13564 ft 370 kts 146°
2026-04-19 03:45 -20.53039 147.73781 13159 ft 366 kts 147°
2026-04-19 03:45 -20.55070 147.75352 12725 ft 364 kts 146°
2026-04-19 03:46 -20.57059 147.77043 12342 ft 361 kts 135°
2026-04-19 03:46 -20.58333 147.79311 11955 ft 362 kts 109°
2026-04-19 03:46 -20.58562 147.81944 11524 ft 362 kts 82°
2026-04-19 03:46 -20.57867 147.84528 11133 ft 360 kts 70°
2026-04-19 03:47 -20.56943 147.86972 10728 ft 357 kts 68°
2026-04-19 03:47 -20.56025 147.89426 10394 ft 351 kts 70°
2026-04-19 03:47 -20.55175 147.91847 10151 ft 343 kts 71°
2026-04-19 03:47 -20.54401 147.94180 10046 ft 331 kts 72°
2026-04-19 03:48 -20.53663 147.96483 9822 ft 324 kts 72°
2026-04-19 03:48 -20.52958 147.98721 9473 ft 313 kts 73°
2026-04-19 03:48 -20.52286 148.00885 8952 ft 302 kts 73°
2026-04-19 03:48 -20.51715 148.02739 8622 ft 287 kts 73°
2026-04-19 03:49 -20.51102 148.04729 8330 ft 275 kts 73°
2026-04-19 03:49 -20.50517 148.06639 8024 ft 273 kts 73°
2026-04-19 03:49 -20.49930 148.08560 7709 ft 273 kts 73°
2026-04-19 03:49 -20.49338 148.10492 7392 ft 273 kts 73°
2026-04-19 03:50 -20.48751 148.12407 7069 ft 274 kts 73°
2026-04-19 03:50 -20.48163 148.14327 6750 ft 274 kts 73°
2026-04-19 03:50 -20.47568 148.16264 6421 ft 273 kts 73°
2026-04-19 03:50 -20.46977 148.18190 6096 ft 273 kts 72°
2026-04-19 03:51 -20.46387 148.20106 5773 ft 272 kts 72°
2026-04-19 03:51 -20.45803 148.22002 5457 ft 271 kts 72°
2026-04-19 03:51 -20.45213 148.23917 5185 ft 268 kts 72°
2026-04-19 03:51 -20.44648 148.25751 5140 ft 256 kts 73°
2026-04-19 03:52 -20.44105 148.27506 5130 ft 243 kts 73°
2026-04-19 03:52 -20.43589 148.29182 5121 ft 229 kts 73°
2026-04-19 03:52 -20.43087 148.30731 5117 ft 216 kts 68°
2026-04-19 03:52 -20.42394 148.32118 4968 ft 215 kts 60°
2026-04-19 03:53 -20.41568 148.33466 4670 ft 217 kts 58°
2026-04-19 03:53 -20.40728 148.34798 4429 ft 216 kts 58°
2026-04-19 03:53 -20.39889 148.36128 4162 ft 216 kts 58°
2026-04-19 03:53 -20.39060 148.37453 3867 ft 218 kts 59°
2026-04-19 03:54 -20.38509 148.38954 3538 ft 220 kts 90°
2026-04-19 03:54 -20.38996 148.40449 3321 ft 220 kts 127°
2026-04-19 03:54 -20.40058 148.41612 3098 ft 220 kts 133°
2026-04-19 03:54 -20.41140 148.42822 2738 ft 225 kts 129°
2026-04-19 03:55 -20.42130 148.44051 2422 ft 215 kts 127°
2026-04-19 03:55 -20.43052 148.45279 2131 ft 207 kts 125°
2026-04-19 03:55 -20.43914 148.46469 1859 ft 201 kts 124°
2026-04-19 03:55 -20.44750 148.47649 1617 ft 194 kts 124°
2026-04-19 03:56 -20.45566 148.48714 1456 ft 181 kts 131°
2026-04-19 03:56 -20.46487 148.49574 1148 ft 171 kts 137°
2026-04-19 03:56 -20.47327 148.50403 903 ft 154 kts 121°
2026-04-19 03:56 -20.47745 148.51361 752 ft 135 kts 108°
2026-04-19 03:57 -20.48112 148.52249 517 ft 128 kts 114°
2026-04-19 03:57 -20.48467 148.53093 394 ft 125 kts 109°
2026-04-19 03:57 -20.48835 148.53943 246 ft 125 kts 111°
2026-04-19 03:57 -20.49195 148.54785 86 ft 120 kts 110°
2026-04-19 03:58 -20.49496 148.55498 81 ft 85 kts 114°
2026-04-19 03:58 -20.49675 148.55907 79 ft 35 kts 115°
2026-04-19 03:58 -20.49756 148.56094 76 ft 26 kts 114°
2026-04-19 03:58 -20.49795 148.56216 74 ft 10 kts 104°
2026-04-19 03:59 -20.49818 148.56206 74 ft 6 kts 287°
2026-04-19 03:59 -20.49793 148.56160 75 ft 7 kts 302°
2026-04-19 03:59 -20.49740 148.56056 77 ft 20 kts 295°
2026-04-19 03:59 -20.49681 148.55920 79 ft 19 kts 295°
2026-04-19 04:00 -20.49623 148.55785 80 ft 19 kts 295°
2026-04-19 04:00 -20.49566 148.55652 81 ft 19 kts 295°
2026-04-19 04:00 -20.49509 148.55519 81 ft 20 kts 295°
2026-04-19 04:00 -20.49449 148.55379 81 ft 23 kts 295°
2026-04-19 04:01 -20.49372 148.55202 80 ft 24 kts 295°
2026-04-19 04:01 -20.49242 148.55086 79 ft 12 kts 26°
2026-04-19 04:01 -20.49160 148.55125 78 ft 13 kts 24°
2026-04-19 04:02 -20.49072 148.55167 78 ft 12 kts 13°
2026-04-19 04:02 -20.49013 148.55113 78 ft 9 kts 295°
2026-04-19 04:02 -20.48981 148.55098 77 ft 6 kts 27°
2026-04-19 04:02 -20.48971 148.55110 77 ft 1 kts 57°
2026-04-19 04:03 -20.48970 148.55112 77 ft 0 kts 57°